Regional Weather Roundup
Issued by NWS Midland/Odessa, TX

Skip options and go directly to product.
Home | Oldest Version | Previous Version | Current Version | All | Graphics & Text | Save Text | Print | Product List | Glossary On

Skip product version selection by date and time.   
270
ASUS44 KMAF 031510
RWRMAF
MIDLAND AREA WEATHER ROUNDUP
NATIONAL WEATHER SERVICE MIDLAND TX
1000 AM CDT FRI JUL 03 2015

...IN SOUTHWEST TEXAS AND SOUTHEAST NEW MEXICO...

CITY           SKY/WX    TMP DP  RH WIND       PRES   REMARKS
ALPINE         MOSUNNY   74  60  60 NE6       30.16R
ANDREWS        FAIR      75  65  70 SE3       30.08S
ARTESIA        PTSUNNY   77  63  61 NW7       30.10R
BIG SPRING     MOSUNNY   79  67  65 S8        30.08S
CARLSBAD       MOSUNNY   79  63  57 E6        30.06R
DRYDEN           N/A     74  68  81 VRB5      30.00R
FORT STOCKTON  MOSUNNY   77  65  66 SE8       30.03S
GUAD PASS      CLOUDY    72  61  68 E16       30.18S
HOBBS          MOSUNNY   77  63  61 CALM      30.10S
MARFA          MOSUNNY  N/A N/A N/A NW7       30.14R
MIDLAND AIRPK  CLOUDY    76  65  69 S5        30.07S
MIDLAND INTL   CLOUDY    75  65  70 SE8       30.06S
ODESSA         CLOUDY    74  64  71 S6        30.07R
PECOS          PTSUNNY   78  65  63 NE9       30.03S
PRESIDIO       NOT AVBL
SEMINOLE       PTSUNNY   78  65  64 SE6       30.09S
SNYDER         PTSUNNY   75  68  77 S9        30.06S
WINK           PTSUNNY   76  65  68 E8        30.04S
$$
...OTHER STATIONS IN TEXAS...

CITY           SKY/WX    TMP DP  RH WIND       PRES   REMARKS
ABILENE        MOSUNNY   82  66  58 S16       30.03S
AMARILLO       MOSUNNY   75  63  66 NW10      30.11S
AUSTIN         PTSUNNY   80  74  81 SW12      30.01S
BROWNSVILLE    PTSUNNY   83  76  79 SE15      29.96S
CORPUS CHRISTI PTSUNNY   85  76  74 S12       29.97S
DALLAS FTW     CLOUDY    82  71  69 SW15      29.98R
DEL RIO        CLOUDY    77  69  76 SE13G18   29.95F
EL PASO        CLOUDY    78  58  49 NE13      30.07S
HOUSTON INT    MOSUNNY   85  75  72 SW3       30.01S
LUBBOCK        CLOUDY    76  65  68 W5        30.08R
SAN ANGELO     PTSUNNY   77  67  71 S10G17    30.04R
SAN ANTONIO    PTSUNNY   80  72  76 S12       30.02S
WACO           PTSUNNY   83  72  69 SW12      30.01R
WICHITA FALLS  NOT AVBL
$$
...OTHER LOCATIONS IN NEW MEXICO...

CITY           SKY/WX    TMP DP  RH WIND       PRES   REMARKS
ALAMAGORDO     PTSUNNY   75  61  60 SE6       30.13R
ALBUQUERQUE    PTSUNNY   74  55  51 E9        30.21S
CANNON AFB     CLOUDY    68  64  87 S2        30.12F
CLOVIS         CLOUDY    68  63  83 W7          N/A
HOLLOMAN AFB   PTSUNNY   74  63  67 NE3       30.10R
ROSWELL        PTSUNNY   76  64  66 N9        30.10R
RUIDOSO        PTSUNNY   63  57  82 SE6       30.33R
SANTA FE       MOSUNNY   67  54  63 N10       30.27R
TRUTH OR CONSE PTSUNNY   73  61  65 CALM      30.16R
TUCUMCARI      CLOUDY    73  65  75 NW7       30.12S
$$

USA.gov is the U.S. government's official web portal to all federal, state and local government web resources and services.